TimeEST,TemperatureF,Dew PointF,Humidity,Sea Level PressureIn,VisibilityMPH,Wind Direction,Wind SpeedMPH,Gust SpeedMPH,PrecipitationIn,Events,Conditions,WindDirDegrees,DateUTC
12:53 AM,55.9,53.1,90,30.30,6.0,Calm,Calm,-,N/A,,Clear,0,2012-11-30 05:53:00
1:53 AM,55.0,53.1,93,30.29,5.0,Calm,Calm,-,N/A,,Partly Cloudy,0,2012-11-30 06:53:00
2:53 AM,54.0,52.0,93,30.29,4.0,Calm,Calm,-,N/A,,Clear,0,2012-11-30 07:53:00
3:53 AM,55.0,53.1,93,30.29,5.0,Calm,Calm,-,N/A,,Clear,0,2012-11-30 08:53:00
4:53 AM,54.0,52.0,93,30.29,4.0,Calm,Calm,-,N/A,,Mostly Cloudy,0,2012-11-30 09:53:00
5:53 AM,54.0,52.0,93,30.30,4.0,Calm,Calm,-,N/A,,Mostly Cloudy,0,2012-11-30 10:53:00
6:18 AM,53.6,51.8,94,30.31,1.5,Calm,Calm,-,N/A,,Partly Cloudy,0,2012-11-30 11:18:00
6:25 AM,53.6,51.8,94,30.31,0.8,Calm,Calm,-,0.01,,Mist,0,2012-11-30 11:25:00
6:32 AM,53.6,51.8,94,30.31,1.2,Calm,Calm,-,0.01,,Scattered Clouds,0,2012-11-30 11:32:00
6:40 AM,53.6,51.8,94,30.31,3.0,Calm,Calm,-,0.01,,Partly Cloudy,0,2012-11-30 11:40:00
6:53 AM,52.0,51.1,97,30.31,7.0,North,3.5,-,0.01,,Clear,360,2012-11-30 11:53:00
6:56 AM,51.8,50.0,94,30.31,1.8,Calm,Calm,-,N/A,,Clear,0,2012-11-30 11:56:00
7:06 AM,53.6,51.8,94,30.32,7.0,Calm,Calm,-,N/A,,Clear,0,2012-11-30 12:06:00
7:53 AM,55.9,55.0,97,30.32,6.0,Calm,Calm,-,N/A,,Clear,0,2012-11-30 12:53:00
8:53 AM,62.1,57.0,84,30.32,10.0,NNE,5.8,-,N/A,,Clear,20,2012-11-30 13:53:00
9:53 AM,68.0,59.0,73,30.33,10.0,NE,4.6,-,N/A,,Scattered Clouds,40,2012-11-30 14:53:00
10:53 AM,69.1,57.9,68,30.32,10.0,NNE,5.8,-,N/A,,Overcast,30,2012-11-30 15:53:00
11:53 AM,71.1,57.9,63,30.30,10.0,NE,4.6,-,N/A,,Mostly Cloudy,50,2012-11-30 16:53:00
12:53 PM,72.0,57.9,61,30.28,10.0,North,4.6,-,N/A,,Overcast,10,2012-11-30 17:53:00
1:53 PM,73.9,54.0,50,30.26,10.0,East,8.1,-,N/A,,Mostly Cloudy,80,2012-11-30 18:53:00
2:53 PM,72.0,57.9,61,30.25,10.0,NE,8.1,-,N/A,,Overcast,50,2012-11-30 19:53:00
3:53 PM,71.1,57.0,61,30.25,10.0,ENE,6.9,-,N/A,,Scattered Clouds,60,2012-11-30 20:53:00
4:53 PM,66.9,57.0,70,30.25,10.0,NNE,6.9,-,N/A,,Mostly Cloudy,30,2012-11-30 21:53:00
5:53 PM,64.9,57.9,78,30.25,10.0,ENE,4.6,-,0.00,,Overcast,70,2012-11-30 22:53:00
6:53 PM,63.0,57.9,84,30.26,10.0,Calm,Calm,-,0.00,,Overcast,0,2012-11-30 23:53:00
7:53 PM,62.1,57.0,84,30.26,10.0,Calm,Calm,-,N/A,,Mostly Cloudy,0,2012-12-01 00:53:00
8:53 PM,62.1,57.9,86,30.27,10.0,Calm,Calm,-,N/A,,Mostly Cloudy,0,2012-12-01 01:53:00
9:53 PM,61.0,57.0,87,30.27,10.0,Calm,Calm,-,N/A,,Mostly Cloudy,0,2012-12-01 02:53:00
10:53 PM,61.0,57.0,87,30.27,10.0,Calm,Calm,-,N/A,,Scattered Clouds,0,2012-12-01 03:53:00
11:53 PM,61.0,57.9,90,30.26,10.0,Calm,Calm,-,N/A,,Overcast,0,2012-12-01 04:53:00